Content
SEND FEEDBACK

Daily
Averages
Monthly
Summary
United States of America

BOGARD, MISSOURI


Home > North America > United States > Missouri
Elevation: 751 feet     Latitude: 39 31N     Longitude: 093 31W

WEATHER
 
SELECT A DAY
Number of Records: 136,638;   Date Range: 5/21/98 - 9/19/14
 
SHARE

PRINT THIS DATA

[ ← Previous Day ]
WEATHER ALMANAC - JANUARY 6, 2013
[ Next Day → ]
[ °C ]   °F
Weather ElementAverageHighLow
Temperature26.6 °F36 °F (3:52 pm)19.9 °F (6:52 am)
Dewpoint17.6 °F19.9 °F (1:52 am)14 °F (6:52 am)
Humidity69.7 %85 % (9:52 pm)50 % (3:52 pm)
Barometer30.35 in30.41 in (9:52 am)30.20 in (1:52 am)
Wind Speed5.3 mph12.7 mph (4:52 am)
Wind Gust24.2 mph (4:52 am)
Weather ElementAverage
Wind DirectionSSE (157.4 °)

Weather ElementTotal
Precipitation---
Heating Degree Days37.1 (Base 65)
Averaged from 23 records on January 6, 2013
WEATHER CONDITIONS BREAKOUT
WIND DIRECTION BREAKOUT
WEATHER BY HOUR - JANUARY 6, 2013
[ °C ]   °F
Local TimeTemperatureDewpointHumidityBarometerVisibilityWind DirectionWind SpeedGust SpeedPrecipitationEventsConditions
1:52 AM28.9 °F19.9 °F69 %30.20 inWNW (300°)10.4 mph
2:52 AM28.0 °F19.9 °F72 %30.21 inWNW (300°)8.1 mph19.6 mph
3:52 AM27.0 °F19.0 °F72 %30.24 inNW (310°)8.1 mph17.3 mph
4:52 AM23.0 °F16.0 °F74 %30.29 inNW (310°)12.7 mph24.2 mph
5:52 AM21.9 °F15.1 °F75 %30.32 inNW (320°)8.1 mph16.1 mph
6:52 AM19.9 °F14.0 °F78 %30.34 inWNW (300°)6.9 mph
7:52 AM19.9 °F14.0 °F78 %30.36 inWest (280°)3.5 mph
8:52 AM23.0 °F16.0 °F74 %30.38 inVariable6.9 mph
9:52 AM25.0 °F16.0 °F69 %30.41 inVariable4.6 mph
10:52 AM28.0 °F17.1 °F63 %30.41 inWest (280°)8.1 mph
11:52 AM30.0 °F18.0 °F61 %30.40 inWSW (240°)5.8 mph
12:52 PM32.0 °F18.0 °F56 %30.38 inVariable5.8 mph
1:52 PM34.0 °F18.0 °F52 %30.37 inVariable5.8 mph
2:52 PM35.1 °F19.0 °F52 %30.37 inWNW (300°)6.9 mph
3:52 PM36.0 °F19.0 °F50 %30.38 inVariable3.5 mph
4:52 PM33.1 °F19.0 °F56 %30.38 inSSW (200°)3.5 mph
5:52 PM27.0 °F19.9 °F75 %30.39 inCalm
6:52 PM25.0 °F19.0 °F78 %30.40 inCalm
7:52 PM24.1 °F18.0 °F77 %30.40 inCalm
8:52 PM21.9 °F17.1 °F82 %30.39 inCalm
9:52 PM21.0 °F17.1 °F85 %30.38 inSouth (170°)4.6 mph
10:52 PM23.0 °F17.1 °F78 %30.36 inSSE (160°)4.6 mph
11:52 PM25.0 °F19.0 °F78 %30.34 inSSE (150°)3.5 mph
Hourly data recorded from KCDJ, located miles away from Bogard, Missouri







STORIES FROM OUR PARTNERS